When you browse on this site, cookies collect data to enhance your experience and personalize the content and advertising you see.
Visit our Privacy Policy to learn more. By continuing to use the site, you agree to this use of cookies and data.
  • En España
  • Lista de países
  • Para 7 días
  • Temperatura del agua
  • Mapa Satelital
  • El tiempo en el mapa
  • Informadores
  • user-avatar
    Iniciar sesión

    Tiempo cada hora Sada

    Hoy, 25 Junio, Martes

    Tiempo Temperatura Precipitaciones Viento Presión Humedad
    00:00 +21°C° 0 mm 2 mps 570 mmHg 29%
    01:00 +21°C° 0 mm 1 mps 570 mmHg 30%
    02:00 +21°C° 0 mm 1 mps 569 mmHg 31%
    03:00 +18°C° 0 mm 0 mps 569 mmHg 33%
    04:00 +18°C° 0 mm 0 mps 569 mmHg 34%
    05:00 +18°C° 0 mm 0 mps 569 mmHg 35%
    06:00 +18°C° 0 mm 0 mps 569 mmHg 36%
    07:00 +22°C° 0 mm 1 mps 570 mmHg 32%
    08:00 +23°C° 0 mm 1 mps 571 mmHg 29%
    09:00 +25°C° 0 mm 2 mps 572 mmHg 25%
    10:00 +26°C° 0 mm 2 mps 573 mmHg 26%
    11:00 +26°C° 0 mm 3 mps 573 mmHg 27%
    12:00 +27°C° 0 mm 3 mps 573 mmHg 29%
    13:00 +27°C° 0.3 mm 3 mps 573 mmHg 30%
    14:00 +27°C° 0.3 mm 3 mps 572 mmHg 32%
    15:00 +27°C° 0.3 mm 3 mps 572 mmHg 33%
    16:00 +26°C° 0.4 mm 3 mps 572 mmHg 37%
    17:00 +25°C° 0.4 mm 3 mps 571 mmHg 41%
    18:00 +24°C° 0.4 mm 3 mps 571 mmHg 45%
    19:00 +24°C° 0.4 mm 3 mps 571 mmHg 48%
    20:00 +23°C° 0.4 mm 2 mps 571 mmHg 50%
    21:00 +22°C° 0.4 mm 1 mps 571 mmHg 53%
    22:00 +22°C° 0 mm 1 mps 571 mmHg 52%
    23:00 +22°C° 0 mm 1 mps 571 mmHg 52%

    Mañana, 26 Junio, Miércoles

    Tiempo Temperatura Precipitaciones Viento Presión Humedad
    00:00 +20°C° 0 mm 0 mps 571 mmHg 51%
    01:00 +20°C° 0 mm 0 mps 570 mmHg 50%
    02:00 +20°C° 0 mm 0 mps 570 mmHg 50%
    03:00 +21°C° 0 mm 1 mps 569 mmHg 49%
    04:00 +21°C° 0 mm 1 mps 570 mmHg 49%
    05:00 +21°C° 0 mm 1 mps 570 mmHg 48%
    06:00 +21°C° 0 mm 1 mps 570 mmHg 48%
    07:00 +22°C° 0 mm 1 mps 571 mmHg 42%
    08:00 +24°C° 0 mm 2 mps 572 mmHg 36%
    09:00 +26°C° 0 mm 3 mps 573 mmHg 29%
    10:00 +26°C° 0 mm 3 mps 573 mmHg 29%
    11:00 +27°C° 0 mm 4 mps 573 mmHg 28%
    12:00 +27°C° 0 mm 4 mps 573 mmHg 28%
    13:00 +27°C° 0 mm 4 mps 573 mmHg 27%
    14:00 +28°C° 0 mm 4 mps 572 mmHg 26%
    15:00 +28°C° 0 mm 4 mps 572 mmHg 25%
    16:00 +28°C° 0 mm 4 mps 572 mmHg 27%
    17:00 +27°C° 0 mm 4 mps 571 mmHg 29%
    18:00 +27°C° 0 mm 4 mps 571 mmHg 31%
    19:00 +26°C° 0 mm 3 mps 571 mmHg 34%
    20:00 +25°C° 0 mm 2 mps 571 mmHg 37%
    21:00 +24°C° 0 mm 1 mps 571 mmHg 39%
    22:00 +23°C° 0 mm 1 mps 571 mmHg 39%
    23:00 +23°C° 0 mm 1 mps 570 mmHg 38%

    Pasado mañana, 27 Junio, Jueves

    Tiempo Temperatura Precipitaciones Viento Presión Humedad
    00:00 +22°C° 0 mm 1 mps 570 mmHg 37%
    01:00 +22°C° 0 mm 1 mps 569 mmHg 36%
    02:00 +22°C° 0 mm 1 mps 569 mmHg 34%
    03:00 +22°C° 0 mm 1 mps 568 mmHg 32%
    04:00 +21°C° 0 mm 1 mps 568 mmHg 32%
    05:00 +21°C° 0 mm 1 mps 568 mmHg 32%
    06:00 +21°C° 0 mm 1 mps 568 mmHg 31%
    07:00 +23°C° 0 mm 2 mps 570 mmHg 27%
    08:00 +25°C° 0 mm 3 mps 571 mmHg 23%
    09:00 +27°C° 0 mm 4 mps 572 mmHg 18%
    10:00 +28°C° 0 mm 4 mps 572 mmHg 18%
    11:00 +29°C° 0 mm 5 mps 572 mmHg 17%
    12:00 +30°C° 0 mm 6 mps 573 mmHg 17%
    13:00 +30°C° 0 mm 6 mps 572 mmHg 16%
    14:00 +30°C° 0 mm 6 mps 572 mmHg 16%
    15:00 +32°C° 0 mm 6 mps 572 mmHg 15%
    16:00 +30°C° 0 mm 6 mps 571 mmHg 19%
    17:00 +29°C° 0 mm 5 mps 571 mmHg 23%
    18:00 +27°C° 0 mm 5 mps 570 mmHg 27%
    19:00 +27°C° 0 mm 4 mps 570 mmHg 26%
    20:00 +26°C° 0 mm 3 mps 570 mmHg 26%
    21:00 +25°C° 0 mm 3 mps 570 mmHg 25%
    22:00 +25°C° 0 mm 2 mps 569 mmHg 25%
    23:00 +24°C° 0 mm 2 mps 569 mmHg 24%

    28 Junio, Viernes

    Tiempo Temperatura Precipitaciones Viento Presión Humedad
    00:00 +24°C° 0 mm 1 mps 569 mmHg 23%
    01:00 +23°C° 0 mm 1 mps 568 mmHg 22%
    02:00 +23°C° 0 mm 1 mps 567 mmHg 22%
    03:00 +22°C° 0 mm 1 mps 567 mmHg 22%
    04:00 +22°C° 0 mm 1 mps 567 mmHg 24%
    05:00 +22°C° 0 mm 1 mps 567 mmHg 25%
    06:00 +21°C° 0 mm 1 mps 567 mmHg 26%
    07:00 +23°C° 0 mm 1 mps 568 mmHg 23%
    08:00 +25°C° 0 mm 2 mps 570 mmHg 20%
    09:00 +27°C° 0 mm 2 mps 571 mmHg 17%
    10:00 +28°C° 0 mm 3 mps 571 mmHg 18%
    11:00 +28°C° 0 mm 4 mps 571 mmHg 19%
    12:00 +29°C° 0 mm 4 mps 571 mmHg 20%
    13:00 +29°C° 0 mm 4 mps 571 mmHg 22%
    14:00 +29°C° 0 mm 4 mps 570 mmHg 24%
    15:00 +29°C° 0 mm 4 mps 570 mmHg 26%
    16:00 +28°C° 0.1 mm 4 mps 570 mmHg 29%
    17:00 +27°C° 0.1 mm 4 mps 569 mmHg 32%
    18:00 +26°C° 0.1 mm 4 mps 569 mmHg 34%
    19:00 +26°C° 0 mm 3 mps 569 mmHg 34%
    20:00 +25°C° 0 mm 3 mps 569 mmHg 34%
    21:00 +25°C° 0 mm 2 mps 569 mmHg 34%
    22:00 +24°C° 0 mm 2 mps 569 mmHg 32%
    23:00 +24°C° 0 mm 2 mps 569 mmHg 30%

    29 Junio, Sábado

    Tiempo Temperatura Precipitaciones Viento Presión Humedad
    00:00 +24°C° 0 mm 2 mps 568 mmHg 28%
    01:00 +23°C° 0 mm 1 mps 568 mmHg 28%
    02:00 +22°C° 0 mm 1 mps 568 mmHg 28%
    03:00 +22°C° 0 mm 1 mps 567 mmHg 28%
    04:00 +21°C° 0 mm 1 mps 567 mmHg 32%
    05:00 +19°C° 0 mm 0 mps 567 mmHg 37%
    06:00 +18°C° 0 mm 0 mps 567 mmHg 41%
    07:00 +20°C° 0 mm 0 mps 569 mmHg 38%
    08:00 +23°C° 0 mm 1 mps 570 mmHg 34%
    09:00 +25°C° 0 mm 1 mps 571 mmHg 31%
    10:00 +26°C° 0.1 mm 2 mps 571 mmHg 31%
    11:00 +27°C° 0.1 mm 3 mps 571 mmHg 31%
    12:00 +27°C° 0.1 mm 3 mps 571 mmHg 32%
    13:00 +28°C° 0.7 mm 3 mps 571 mmHg 32%
    14:00 +28°C° 0.7 mm 3 mps 571 mmHg 32%
    15:00 +28°C° 0.7 mm 3 mps 570 mmHg 32%
    16:00 +27°C° 0.5 mm 3 mps 570 mmHg 38%
    17:00 +25°C° 0.5 mm 3 mps 569 mmHg 45%
    18:00 +24°C° 0.5 mm 3 mps 568 mmHg 51%
    19:00 +24°C° 0 mm 2 mps 569 mmHg 53%
    20:00 +23°C° 0 mm 2 mps 569 mmHg 56%
    21:00 +23°C° 0 mm 1 mps 569 mmHg 58%
    22:00 +23°C° 0 mm 1 mps 569 mmHg 56%
    23:00 +23°C° 0 mm 1 mps 569 mmHg 55%

    30 Junio, Domingo

    Tiempo Temperatura Precipitaciones Viento Presión Humedad
    00:00 +20°C° 0 mm 0 mps 569 mmHg 54%
    01:00 +22°C° 0 mm 1 mps 569 mmHg 55%
    02:00 +22°C° 0 mm 1 mps 568 mmHg 56%
    03:00 +20°C° 0 mm 2 mps 568 mmHg 57%
    04:00 +20°C° 0 mm 2 mps 568 mmHg 53%
    05:00 +20°C° 0 mm 2 mps 568 mmHg 49%
    06:00 +20°C° 0 mm 2 mps 569 mmHg 45%
    07:00 +23°C° 0 mm 2 mps 570 mmHg 40%
    08:00 +24°C° 0 mm 2 mps 571 mmHg 36%
    09:00 +25°C° 0 mm 2 mps 572 mmHg 31%
    10:00 +26°C° 0 mm 3 mps 572 mmHg 29%
    11:00 +27°C° 0 mm 4 mps 572 mmHg 27%
    12:00 +28°C° 0 mm 5 mps 572 mmHg 25%
    13:00 +28°C° 0 mm 5 mps 572 mmHg 27%
    14:00 +27°C° 0 mm 6 mps 571 mmHg 30%
    15:00 +27°C° 0 mm 6 mps 570 mmHg 33%
    16:00 +26°C° 0 mm 5 mps 570 mmHg 35%
    17:00 +25°C° 0 mm 4 mps 569 mmHg 37%
    18:00 +24°C° 0 mm 3 mps 569 mmHg 40%
    19:00 +22°C° 0 mm 3 mps 569 mmHg 43%
    20:00 +23°C° 0 mm 2 mps 569 mmHg 47%
    21:00 +22°C° 0 mm 1 mps 569 mmHg 51%
    22:00 +22°C° 0 mm 1 mps 569 mmHg 49%
    23:00 +22°C° 0 mm 1 mps 569 mmHg 47%
    Mostrar más